Location: Espelette
(43.3402°N, 1.4474°W)
Time: 06:48:42
(UTC+00:00)

Cosmos 2184 Rocket - Pass Details

Date: 19 May 2025
Orbit: 959 x 1000 km, 82.9° (Epoch: 18 June)

Event Time Altitude Azimuth Distance (km) Brightness Sun altitude
Rises 19:53:56 0° 356° (N) 3,676 7.6 -4.9°
Reaches altitude 10° 19:56:32 10° 2° (N) 2,731 6.8 -5.3°
Maximum altitude 20:02:37 51° 77° (ENE) 1,218 4.3 -6.2°
Drops below altitude 10° 20:08:43 10° 153° (SSE) 2,742 5.8 -7.1°
Enters shadow 20:10:18 - 157° (SSE) 3,314 6.2 -7.3°
